www.pogodaiklimat.ru

Погода и климат >> Архив погоды >> Россия >> Чукотка >> Валькаркай


ПОГОДА в Валькаркае

  • Прогноз погоды в Валькаркае
  • Монитор погоды в Валькаркае

АРХИВ ПОГОДЫ в Валькаркае

Время (UTC), дата Ветер
(напр.,м/с)
 
Видим.   Явления Облачность Т
(С)
Тd
(С)
f
(%)
Тe
(С)
Тes
(С)
Комфортность P
(гПа)
Po
(гПа)
Тmin
(С)
Tmax
(С)
R
(мм)
R24
(мм)
S
(см)
15 19.03 З 10-14
{14}
2000 м метель {снег} 10/10 540 м
[Sc]
-22.4 -24.8 81 -37 -37 опасность
обморожения
1005.1 1004.6
18 19.03 З 12-15
{17}
700 м сильная метель 10/10 600 м
[Sc]
-23.6 -26.1 80 -39 -39 опасность
обморожения
1006.3 1005.8
21 19.03 З 12-15
{16}
500 м сильная метель 10/10 480 м
[Sc]
-24.2 -26.6 80 -40 -40 опасность
обморожения
1008.3 1007.8 -24.2 0.7 19
00 20.03 З 13-16
{18}
900 м сильная метель 10/10 540 м
[Sc]
-24.5 -27.0 80 -41 -41 опасность
обморожения
1010.2 1009.6 -24.5
03 20.03 З 12-16
{18}
700 м сильная метель 9/9 600 м
[Sc]
-23.9 -26.4 80 -40 -40 опасность
обморожения
1012.0 1011.4
06 20.03 З 11-15
{17}
600 м сильная метель 10/10 600 м
[Sc]
-23.8 -26.3 80 -39 -39 опасность
обморожения
1014.8 1014.2
09 20.03 З 11-15
{16}
500 м сильная метель 10/10 600 м
[Sc]
-24.6 -27.0 80 -40 -40 опасность
обморожения
1018.2 1017.6 -23.4
12 20.03 З 12-17
{17}
500 м сильная метель 8/8 600 м
[Sc]
-24.8 -28.0 75 -41 -41 опасность
обморожения
1020.0 1019.4
15 20.03 З 12-17
{18}
500 м сильная метель 9/9 600 м
[Sc]
-23.2 -25.7 80 -39 -39 опасность
обморожения
1021.5 1021.0
18 20.03 З 12-16
{17}
700 м сильная метель 10/10 600 м
[Sc]
-21.8 -24.3 80 -37 -37 опасность
обморожения
1023.5 1023.0
21 20.03 З 10-15
{16}
3000 м метель 9/6 600 м
[Sc Ac trans Ci fib]
-22.0 -25.2 75 -36 -36 опасность
обморожения
1025.6 1025.0 -24.8 19
00 21.03 З 9-13
{15}
20 км сильный позёмок 8/4 600 м
[Sc Ac trans Ci fib]
-21.5 -24.0 80 -35 -35 опасность
обморожения
1026.6 1026.1
03 21.03 З 8-10
{14}
20 км позёмок 8/3 300 м
[St Ac trans Ci fib]
-19.9 -23.2 75 -32 -32 опасность
обморожения
1026.6 1026.0
06 21.03 З 5
{12}
20 км позёмок 8/3 200 м
[St Ac trans Ci fib]
-21.1 -24.4 75 -31 -31 опасность
обморожения
1027.5 1026.9
09 21.03 З 7
{9}
20 км позёмок 6/0
[Ac trans Ci fib]
-24.5 -27.7 75 -37 -37 опасность
обморожения
1027.8 1027.2 -19.5
12 21.03 В 1
{9}
20 км {метель} 6/0
[Ci fib]
-27.8 -30.9 75 -32 -32 опасность
обморожения
1027.5 1027.0
15 21.03 штиль 0
{2}
20 км 6/0
[Ci fib]
-28.8 -31.8 75 -29 -29 1027.0 1026.5
18 21.03 В 4
{5}
20 км 6/0
[Ci fib]
-26.1 -28.5 80 -36 -36 опасность
обморожения
1026.8 1026.2
21 21.03 В 2
{5}
20 км 9/0
[Ci fib]
-24.5 -27.0 80 -31 -30 опасность
обморожения
1026.8 1026.2 -30.0 19
00 22.03 штиль 0
{3}
2600 м снег 10/0
[As trans]
-23.1 -25.5 81 -23 -22 1026.8 1026.2
03 22.03 СЗ 2
{2}
20 км в посл. час снег 10/0
[Cs]
-21.7 -24.2 80 -28 -26 1027.4 1026.8
06 22.03 ЮЗ 2
{3}
20 км {снег} 4/0
[Ac trans Ci fib]
-25.3 -28.4 75 -32 -32 опасность
обморожения
1027.7 1027.1
09 22.03 ЮЗ 2
{3}
20 км 3/0
[Ac trans]
-28.7 -31.8 75 -36 -36 опасность
обморожения
1027.9 1027.3 -20.2 0.7
12 22.03 ЮЗ 2
{4}
20 км ясно -30.8 -33.8 75 -38 -38 опасность
обморожения
1027.5 1026.9
15 22.03 штиль 0
{3}
20 км ясно -31.4 -35.0 70 -31 -31 опасность
обморожения
1026.6 1026.1
18 22.03 штиль 0
{4}
20 км ясно -32.3 -35.9 70 -32 -32 опасность
обморожения
1025.6 1025.0
21 22.03 штиль 0
{12}
20 км ясно -31.9 -35.7 69 -32 -30 опасность
обморожения
1024.7 1024.1 -33.3 19
00 23.03 штиль 0
{2}
50 км ясно -27.4 -30.4 76 -27 -23 1023.2 1022.6
03 23.03 штиль 0 50 км ясно -25.8 -28.9 75 -26 -23 1021.6 1021.0
06 23.03 штиль 0 50 км 1/0
[Ci fib]
-26.0 -29.1 75 -26 -26 1020.5 1019.9
09 23.03 штиль 0 50 км 3/0
[Ci fib]
-29.2 -32.2 75 -29 -29 1019.8 1019.2 -25.5
12 23.03 штиль 0 50 км 3/0
[Ci fib]
-29.8 -32.8 75 -30 -30 1018.7 1018.1
15 23.03 В 4
{4}
20 км 4/0
[Ci fib]
-27.4 -30.4 76 -38 -38 опасность
обморожения
1017.5 1016.9
18 23.03 В 4
{5}
20 км 4/0
[Ci fib]
-28.5 -31.5 75 -39 -39 опасность
обморожения
1016.6 1016.0
21 23.03 В 3
{7}
20 км 3/0
[Ci fib]
-27.2 -30.3 75 -36 -35 опасность
обморожения
1015.6 1015.0 -31.3 19
00 24.03 В 4
{6}
20 км 4/0
[Ci fib]
-24.4 -26.9 80 -34 -32 опасность
обморожения
1014.9 1014.4
03 24.03 В 2
{5}
20 км 6/3 200 м
[St Ac trans Ci fib]
-22.4 -24.9 80 -29 -27 1014.3 1013.7
06 24.03 В 1
{3}
20 км 9/6 200 м
[St Ac trans]
-23.0 -25.3 81 -26 -26 1014.2 1013.6
09 24.03 В 4
{4}
20 км 8/4 200 м
[St Ci fib]
-24.4 -26.9 80 -34 -34 опасность
обморожения
1014.0 1013.4 -22.3
12 24.03 В 3
{5}
20 км 6/3 200 м
[St Ci fib]
-26.1 -29.2 75 -35 -35 опасность
обморожения
1013.1 1012.5
15 24.03 В 3
{5}
20 км 6/0
[Ci fib]
-26.9 -30.0 75 -36 -36 опасность
обморожения
1012.5 1012.0
18 24.03 В 3
{4}
20 км 6/0
[Ci fib]
-27.4 -30.4 76 -36 -36 опасность
обморожения
1011.7 1011.2
21 24.03 В 5
{7}
20 км 6/0
[Ac trans Ci fib]
-23.5 -26.0 80 -34 -34 опасность
обморожения
1010.7 1010.1 -27.8 19
00 25.03 В 6
{8}
20 км снежные кристаллы 10/5 360 м
[St Ac und]
-21.5 -24.0 80 -33 -33 опасность
обморожения
1010.5 1009.9
03 25.03 В 6
{8}
20 км позёмок {снег} 10/10 400 м
[St]
-20.3 -22.2 85 -31 -31 опасность
обморожения
1009.7 1009.1
06 25.03 В 4
{7}
10 км слаб. снег {метель} 10/8 540 м
[Sc Ac trans]
-19.8 -21.7 85 -29 -29 1010.1 1009.6
09 25.03 В 2
{5}
4000 м слаб. снег 10/8 540 м
[Sc Ac trans]
-19.5 -21.4 85 -25 -25 1010.7 1010.2 -19.5 0.4
12 25.03 В 3
{6}
4000 м слаб. снег 6/6 600 м
[Sc]
-19.7 -21.6 85 -27 -27 1010.8 1010.3
15 25.03 В 2
{4}
4000 м слаб. снег 10/10 500 м
[Sc]
-19.3 -21.2 85 -25 -25 1010.6 1010.1
18 25.03 В 3
{3}
5000 м слаб. снег 10/10 600 м
[Sc]
-18.1 -20.0 85 -25 -25 1010.0 1009.5
21 25.03 В 4
{6}
4500 м слаб. снег 10/10 180 м
[St]
-17.3 -19.2 85 -26 -26 1009.2 1008.6 -20.5 0.3 20
00 26.03 В 5
{7}
10 км слаб. снег 10/10 300 м
[St]
-17.2 -19.1 85 -27 -27 1007.1 1006.5
03 26.03 В 4
{7}
10 км слаб. снег 10/10 270 м
[St]
-15.9 -17.2 90 -24 -24 1003.7 1003.1
06 26.03 В 5
{8}
3000 м снег 10/10 180 м
[Frnb]
-14.1 -15.4 90 -23 -23 999.6 999.0
09 26.03 В 3
{8}
2000 м снег {метель} 10/10 210 м
[Frnb]
-13.4 -14.7 90 -20 -20 994.0 993.4 -13.4 2

 

Местоположение метеостанции Валькаркай (Чукотка, Россия): широта 70.08 долгота 170.90 высота над уровнем моря 6 м.

В архиве по умолчанию представлена погода в Валькаркае за последнюю неделю. Архивные данные за месяц целиком и за предыдущие месяцы, начиная с января 2011 года, Вы можете получить, выбрав интересующий диапазон дат из раскрывающегося списка и нажав кнопку "Ввод!".


*Определитесь, кто Вы:
робот инопланетянин человек

Внимание! Время в таблицах - всемирное. Для получения местного времени необходимо прибавить поправку, которая равна 12 ч.

Смотрите также архив погоды в соседних городах и на ближайших метеорологических станциях:

Погода в Певеке (Чукотка, Россия) (50 км)
Погода на 21 км (Чукотка, Россия) (50 км)
Погода на Айон Острове (Чукотка, Россия) (115 км)
Погода в Комсомольской (Чукотка, Россия) (129 км)
Погода в Чауне (Чукотка, Россия) (134 км)
Погода в Паляваам-Глубокой (Чукотка, Россия) (163 км)
Погода в Раучуе (Чукотка, Россия) (181 км)
Погода на Мысе Биллингс (Чукотка, Россия) (184 км)
Погода в Майской (Чукотка, Россия) (196 км)
Погода в Билибино (Чукотка, Россия) (288 км)

Пояснения к столбцам:

Ветер - указаны скорость ветра в м/с - средняя за 10 мин, порывы в срок и между сроками (в фигурных скобках) и направление, откуда дует ветер: С - северный, СВ - северо-восточный, В - восточный, ЮВ - юго-восточный, Ю - южный, ЮЗ - юго-западный, З - западный, СЗ - северо-западный.
Видимость - горизонтальная дальность видимости в метрах или километрах. При видимости от 1 до 10 км при отсутствии осадков обычно наблюдается дымка, при ухудшении видимости до 1 км и менее - туман. В сухую погоду видимость может ухудшаться дымом, пылью или мглою.
Явления - указаны атмосферные явления, наблюдавшиеся в срок или в последний час перед сроком; фигурными скобками обозначены явления, наблюдавшиеся между сроками (за 1-3 часа до срока); квадратными скобками обозначены град или гололедные отложения с указанием их диаметра в мм.
Облачность - указаны через наклонную черту общая и нижняя облачность в баллах и высота нижней границы облаков в метрах; квадратными скобками обозначены формы облаков: Ci - перистые, Cs - перисто-слоистые, Cc - перисто-кучевые, Ac - высококучевые, As - высокослоистые, Sc - слоисто-кучевые, Ns - слоисто-дождевые, Cu - кучевые, Cb - кучево-дождевые. Подробнее классификацию облаков см. в Атласе облаков (PDF).
T - Температура воздуха - температура, измеренная на высоте 2 м над землей.
Td - Температура точки росы - температура, при понижении до которой содержащийся в воздухе водяной пар достигнет насыщения.
f - Относительная влажность воздуха - влажноcть воздуха, измеренная на высоте 2 м над землей.
Te - Эффективная температура - температура, которую ощущает одетый по сезону человек в тени. Характеристика душности погоды. При расчете учитывается влияние влажности воздуха и скорости ветра на теплоощущения человека.
Tes - Эффективная температура на солнце - температура, которую ощущает человек, с поправкой на солнечный нагрев. Характеристика знойности погоды. Зависит от высоты солнца над горизонтом, облачности и скорости ветра. Ночью, в пасмурную погоду, а также при ветре 12 м/с и более поправка равна нулю.
P - Атмосферное давление - приведенное к уровню моря атмосферное давление.
Po - Атмосферное давление - измеренное на уровне метеостанции атмосферное давление.
Tmin - Минимальная температура - минимум температуры воздуха на высоте 2 м над землей.
Tmax - Максимальная температура - максимум температуры воздуха на высоте 2 м над землей.
R - Количество осадков - Количество выпавших осадков за период времени, мм. При наведении курсора мыши на число - период времени, за который выпало указанное количество осадков.
R24 - Количество осадков - Количество выпавших осадков за 24 часа, мм.
S - Снежный покров - Высота снежного покрова, см. При наведении курсора мыши на число - состояние снежного покрова и степень покрытия местности в баллах.